Time,TemperatureF,DewpointF,PressureIn,WindDirection,WindDirectionDegrees,WindSpeedMPH,WindSpeedGustMPH,Humidity,HourlyPrecipIn,Conditions,Clouds,dailyrainin,SoftwareType,DateUTC
2013-01-03 00:02:00,18.3,13.8,30.18,South,176,8.0,10.0,82,0.00,,,0.00,meteohub,2013-01-03 05:02:00,
2013-01-03 00:03:00,18.3,13.8,30.17,SSE,158,5.0,10.0,82,0.00,,,0.00,meteohub,2013-01-03 05:03:00,
2013-01-03 00:04:00,18.3,13.8,30.18,South,188,9.0,10.0,82,0.00,,,0.00,meteohub,2013-01-03 05:04:00,
2013-01-03 00:09:00,18.5,14.0,30.17,South,191,9.0,11.0,82,0.00,,,0.00,meteohub,2013-01-03 05:09:00,
2013-01-03 00:14:00,18.7,13.8,30.17,South,179,5.0,11.0,81,0.00,,,0.00,meteohub,2013-01-03 05:14:00,
2013-01-03 00:20:00,18.9,14.0,30.17,SSE,160,5.0,11.0,81,0.00,,,0.00,meteohub,2013-01-03 05:20:00,
2013-01-03 00:25:00,19.0,13.8,30.17,SSE,152,7.0,11.0,80,0.00,,,0.00,meteohub,2013-01-03 05:25:00,
2013-01-03 00:30:00,19.0,13.8,30.17,SSW,197,10.0,12.0,80,0.00,,,0.00,meteohub,2013-01-03 05:30:00,
2013-01-03 00:35:00,19.2,13.8,30.16,SSW,194,9.0,12.0,79,0.00,,,0.00,meteohub,2013-01-03 05:35:00,
2013-01-03 00:40:00,19.2,13.8,30.16,SSE,158,7.0,12.0,79,0.00,,,0.00,meteohub,2013-01-03 05:40:00,
2013-01-03 00:45:00,19.2,13.8,30.16,SSE,155,8.0,12.0,79,0.00,,,0.00,meteohub,2013-01-03 05:45:00,
2013-01-03 00:50:00,19.4,13.6,30.16,SSE,166,8.0,12.0,78,0.00,,,0.00,meteohub,2013-01-03 05:50:00,
2013-01-03 00:55:00,19.6,13.8,30.16,SSE,149,8.0,13.0,78,0.00,,,0.00,meteohub,2013-01-03 05:55:00,
2013-01-03 01:00:00,19.6,13.6,30.15,SSW,194,7.0,13.0,77,0.00,,,0.00,meteohub,2013-01-03 06:00:00,
2013-01-03 01:05:00,19.6,13.6,30.15,South,187,10.0,15.0,77,0.00,,,0.00,meteohub,2013-01-03 06:05:00,
2013-01-03 01:10:00,19.6,13.6,30.15,SE,143,8.0,15.0,77,0.00,,,0.00,meteohub,2013-01-03 06:10:00,
2013-01-03 01:15:00,19.6,13.3,30.14,SSE,160,10.0,15.0,76,0.00,,,0.00,meteohub,2013-01-03 06:15:00,
2013-01-03 01:20:00,19.6,13.6,30.14,SE,146,9.0,15.0,77,0.00,,,0.00,meteohub,2013-01-03 06:20:00,
2013-01-03 01:25:00,19.6,13.6,30.15,SSE,168,6.0,15.0,77,0.00,,,0.00,meteohub,2013-01-03 06:25:00,
2013-01-03 01:30:00,19.6,13.6,30.15,South,186,5.0,15.0,77,0.00,,,0.00,meteohub,2013-01-03 06:30:00,
2013-01-03 01:35:00,19.6,13.6,30.15,South,183,7.0,15.0,77,0.00,,,0.00,meteohub,2013-01-03 06:35:00,
2013-01-03 01:40:00,19.6,13.6,30.14,SSW,193,4.0,15.0,77,0.00,,,0.00,meteohub,2013-01-03 06:40:00,
2013-01-03 01:45:00,19.6,13.3,30.15,South,172,6.0,11.0,76,0.00,,,0.00,meteohub,2013-01-03 06:45:00,
2013-01-03 01:50:00,19.6,13.6,30.15,South,188,7.0,13.0,77,0.00,,,0.00,meteohub,2013-01-03 06:50:00,
2013-01-03 01:56:00,19.6,13.6,30.14,South,190,8.0,13.0,77,0.00,,,0.00,meteohub,2013-01-03 06:56:00,
2013-01-03 02:01:00,19.4,13.1,30.15,South,182,6.0,13.0,76,0.00,,,0.00,meteohub,2013-01-03 07:01:00,
2013-01-03 02:06:00,19.4,13.5,30.14,SE,145,4.0,13.0,77,0.00,,,0.00,meteohub,2013-01-03 07:06:00,
2013-01-03 02:11:00,19.4,13.1,30.14,SSE,158,4.0,11.0,76,0.00,,,0.00,meteohub,2013-01-03 07:11:00,
2013-01-03 02:16:00,19.4,13.5,30.15,SE,145,7.0,11.0,77,0.00,,,0.00,meteohub,2013-01-03 07:16:00,
2013-01-03 02:21:00,19.4,13.1,30.15,SSE,162,5.0,11.0,76,0.00,,,0.00,meteohub,2013-01-03 07:21:00,
2013-01-03 02:26:00,19.4,13.5,30.15,SSW,204,8.0,11.0,77,0.00,,,0.00,meteohub,2013-01-03 07:26:00,
2013-01-03 02:31:00,19.2,12.9,30.14,South,183,8.0,11.0,76,0.00,,,0.00,meteohub,2013-01-03 07:31:00,
2013-01-03 02:36:00,19.2,12.9,30.14,SSW,194,6.0,12.0,76,0.00,,,0.00,meteohub,2013-01-03 07:36:00,
2013-01-03 02:41:00,19.2,13.3,30.14,SSE,147,6.0,12.0,77,0.00,,,0.00,meteohub,2013-01-03 07:41:00,
2013-01-03 02:46:00,19.2,13.3,30.15,SSW,203,9.0,11.0,77,0.00,,,0.00,meteohub,2013-01-03 07:46:00,
2013-01-03 02:51:00,19.2,13.3,30.15,South,175,5.0,11.0,77,0.00,,,0.00,meteohub,2013-01-03 07:51:00,
2013-01-03 02:56:00,19.2,13.3,30.15,SE,146,5.0,10.0,77,0.00,,,0.00,meteohub,2013-01-03 07:56:00,
2013-01-03 03:01:00,19.2,12.9,30.14,South,172,6.0,10.0,76,0.00,,,0.00,meteohub,2013-01-03 08:01:00,
2013-01-03 03:06:00,19.2,13.3,30.14,SSE,164,6.0,10.0,77,0.00,,,0.00,meteohub,2013-01-03 08:06:00,
2013-01-03 03:11:00,19.2,13.3,30.14,South,188,9.0,11.0,77,0.00,,,0.00,meteohub,2013-01-03 08:11:00,
2013-01-03 03:17:00,19.2,12.9,30.14,South,186,9.0,12.0,76,0.00,,,0.00,meteohub,2013-01-03 08:17:00,
2013-01-03 03:22:00,19.0,13.1,30.14,SSW,197,8.0,12.0,77,0.00,,,0.00,meteohub,2013-01-03 08:22:00,
2013-01-03 03:27:00,19.0,13.1,30.14,SSW,194,9.0,12.0,77,0.00,,,0.00,meteohub,2013-01-03 08:27:00,
2013-01-03 03:32:00,19.0,13.1,30.14,SSW,196,9.0,12.0,77,0.00,,,0.00,meteohub,2013-01-03 08:32:00,
2013-01-03 03:37:00,19.0,13.1,30.14,SSE,163,7.0,12.0,77,0.00,,,0.00,meteohub,2013-01-03 08:37:00,
2013-01-03 03:42:00,19.0,13.1,30.14,SSW,197,7.0,12.0,77,0.00,,,0.00,meteohub,2013-01-03 08:42:00,
2013-01-03 03:47:00,19.2,13.5,30.14,SSW,197,11.0,12.0,78,0.00,,,0.00,meteohub,2013-01-03 08:47:00,
2013-01-03 03:52:00,19.2,13.5,30.13,SSE,163,5.0,12.0,78,0.00,,,0.00,meteohub,2013-01-03 08:52:00,
2013-01-03 03:57:00,19.2,13.5,30.13,South,190,10.0,12.0,78,0.00,,,0.00,meteohub,2013-01-03 08:57:00,
2013-01-03 04:02:00,19.2,13.5,30.13,SSW,194,5.0,12.0,78,0.00,,,0.00,meteohub,2013-01-03 09:02:00,
2013-01-03 04:07:00,19.2,13.5,30.13,South,187,5.0,14.0,78,0.00,,,0.00,meteohub,2013-01-03 09:07:00,
2013-01-03 04:12:00,19.2,13.5,30.13,SSW,197,9.0,14.0,78,0.00,,,0.00,meteohub,2013-01-03 09:12:00,
2013-01-03 04:17:00,19.2,13.5,30.12,SSE,155,4.0,14.0,78,0.00,,,0.00,meteohub,2013-01-03 09:17:00,
2013-01-03 04:22:00,19.4,13.6,30.12,SSW,203,4.0,11.0,78,0.00,,,0.00,meteohub,2013-01-03 09:22:00,
2013-01-03 04:27:00,19.4,13.6,30.12,SW,219,8.0,11.0,78,0.00,,,0.00,meteohub,2013-01-03 09:27:00,
2013-01-03 04:32:00,19.6,14.2,30.12,SSW,198,9.0,11.0,79,0.00,,,0.00,meteohub,2013-01-03 09:32:00,
2013-01-03 04:37:00,19.6,14.2,30.12,SSW,203,5.0,11.0,79,0.00,,,0.00,meteohub,2013-01-03 09:37:00,
2013-01-03 04:42:00,19.6,14.2,30.12,SSW,194,6.0,10.0,79,0.00,,,0.00,meteohub,2013-01-03 09:42:00,
2013-01-03 04:47:00,19.8,14.4,30.11,South,179,6.0,11.0,79,0.00,,,0.00,meteohub,2013-01-03 09:47:00,
2013-01-03 04:52:00,19.8,14.4,30.11,SW,215,6.0,12.0,79,0.00,,,0.00,meteohub,2013-01-03 09:52:00,
2013-01-03 04:57:00,19.8,14.4,30.11,SSW,211,7.0,12.0,79,0.00,,,0.00,meteohub,2013-01-03 09:57:00,
2013-01-03 05:03:00,19.8,14.4,30.11,SSW,208,7.0,13.0,79,0.00,,,0.00,meteohub,2013-01-03 10:03:00,
2013-01-03 05:08:00,19.8,14.4,30.12,SSW,211,10.0,13.0,79,0.00,,,0.00,meteohub,2013-01-03 10:08:00,
2013-01-03 05:13:00,19.8,14.5,30.12,South,174,5.0,14.0,80,0.00,,,0.00,meteohub,2013-01-03 10:13:00,
2013-01-03 05:18:00,19.9,14.7,30.11,South,184,5.0,14.0,80,0.00,,,0.00,meteohub,2013-01-03 10:18:00,
2013-01-03 05:23:00,19.9,14.7,30.11,SSW,212,7.0,13.0,80,0.00,,,0.00,meteohub,2013-01-03 10:23:00,
2013-01-03 05:28:00,19.9,15.1,30.11,SSW,203,3.0,13.0,81,0.00,,,0.00,meteohub,2013-01-03 10:28:00,
2013-01-03 05:33:00,20.1,15.3,30.11,SSW,197,7.0,11.0,81,0.00,,,0.00,meteohub,2013-01-03 10:33:00,
2013-01-03 05:38:00,20.1,15.4,30.11,SSE,167,7.0,11.0,82,0.00,,,0.00,meteohub,2013-01-03 10:38:00,
2013-01-03 05:43:00,20.1,15.4,30.11,SSW,193,8.0,12.0,82,0.00,,,0.00,meteohub,2013-01-03 10:43:00,
2013-01-03 05:48:00,20.1,15.8,30.11,SE,142,9.0,12.0,83,0.00,,,0.00,meteohub,2013-01-03 10:48:00,
2013-01-03 05:53:00,20.3,15.6,30.11,SW,219,4.0,12.0,82,0.00,,,0.00,meteohub,2013-01-03 10:53:00,
2013-01-03 05:58:00,20.5,15.8,30.11,SSE,166,6.0,12.0,82,0.00,,,0.00,meteohub,2013-01-03 10:58:00,
2013-01-03 06:03:00,20.5,15.8,30.10,South,172,8.0,13.0,82,0.00,,,0.00,meteohub,2013-01-03 11:03:00,
2013-01-03 06:08:00,20.5,15.8,30.10,SW,225,6.0,13.0,82,0.00,,,0.00,meteohub,2013-01-03 11:08:00,
2013-01-03 06:13:00,20.7,16.0,30.10,South,176,7.0,13.0,82,0.00,,,0.00,meteohub,2013-01-03 11:13:00,
2013-01-03 06:18:00,20.7,16.3,30.10,SSW,200,11.0,13.0,83,0.00,,,0.00,meteohub,2013-01-03 11:18:00,
2013-01-03 06:23:00,20.7,16.3,30.10,SSW,203,7.0,14.0,83,0.00,,,0.00,meteohub,2013-01-03 11:23:00,
2013-01-03 06:28:00,20.8,16.5,30.10,SSW,205,6.0,14.0,83,0.00,,,0.00,meteohub,2013-01-03 11:28:00,
2013-01-03 06:33:00,20.8,16.5,30.10,SW,232,5.0,14.0,83,0.00,,,0.00,meteohub,2013-01-03 11:33:00,
2013-01-03 06:38:00,21.0,16.9,30.10,SSW,203,4.0,14.0,84,0.00,,,0.00,meteohub,2013-01-03 11:38:00,
2013-01-03 06:43:00,21.0,16.9,30.10,SW,217,6.0,12.0,84,0.00,,,0.00,meteohub,2013-01-03 11:43:00,
2013-01-03 06:49:00,21.2,17.1,30.10,SSW,197,9.0,12.0,84,0.00,,,0.00,meteohub,2013-01-03 11:49:00,
2013-01-03 06:54:00,21.4,17.2,30.10,SW,220,6.0,13.0,84,0.00,,,0.00,meteohub,2013-01-03 11:54:00,
2013-01-03 06:59:00,21.6,17.4,30.10,SSW,211,9.0,13.0,84,0.00,,,0.00,meteohub,2013-01-03 11:59:00,
2013-01-03 07:04:00,21.6,17.8,30.10,SSW,200,4.0,13.0,85,0.00,,,0.00,meteohub,2013-01-03 12:04:00,
2013-01-03 07:09:00,21.7,18.0,30.10,SSW,203,9.0,13.0,85,0.00,,,0.00,meteohub,2013-01-03 12:09:00,
2013-01-03 07:14:00,21.7,18.0,30.10,SW,221,9.0,12.0,85,0.00,,,0.00,meteohub,2013-01-03 12:14:00,
2013-01-03 07:19:00,21.7,18.0,30.10,SSW,201,11.0,12.0,85,0.00,,,0.00,meteohub,2013-01-03 12:19:00,
2013-01-03 07:24:00,21.9,18.1,30.10,SW,221,11.0,15.0,85,0.00,,,0.00,meteohub,2013-01-03 12:24:00,
2013-01-03 07:29:00,21.9,18.1,30.10,South,191,7.0,15.0,85,0.00,,,0.00,meteohub,2013-01-03 12:29:00,
2013-01-03 07:34:00,21.9,18.1,30.10,South,191,7.0,15.0,85,0.00,,,0.00,meteohub,2013-01-03 12:34:00,
2013-01-03 07:39:00,22.1,18.5,30.10,South,183,5.0,14.0,86,0.00,,,0.00,meteohub,2013-01-03 12:39:00,
2013-01-03 07:44:00,22.3,18.7,30.10,SSW,211,7.0,14.0,86,0.00,,,0.00,meteohub,2013-01-03 12:44:00,
2013-01-03 07:50:00,22.3,18.7,30.10,SSW,211,9.0,14.0,86,0.00,,,0.00,meteohub,2013-01-03 12:50:00,
2013-01-03 07:55:00,22.5,18.9,30.11,SW,224,8.0,12.0,86,0.00,,,0.00,meteohub,2013-01-03 12:55:00,
2013-01-03 08:00:00,22.5,18.7,30.11,SSW,200,7.0,13.0,85,0.00,,,0.00,meteohub,2013-01-03 13:00:00,
2013-01-03 08:05:00,22.5,18.7,30.11,SSW,200,7.0,13.0,85,0.00,,,0.00,meteohub,2013-01-03 13:05:00,
2013-01-03 08:10:00,22.5,18.9,30.11,SSW,197,5.0,13.0,86,0.00,,,0.00,meteohub,2013-01-03 13:10:00,
2013-01-03 08:15:00,22.5,18.9,30.10,SSW,195,8.0,12.0,86,0.00,,,0.00,meteohub,2013-01-03 13:15:00,
2013-01-03 08:20:00,22.6,19.0,30.10,SSW,209,6.0,14.0,86,0.00,,,0.00,meteohub,2013-01-03 13:20:00,
2013-01-03 08:25:00,22.6,19.0,30.11,WSW,242,6.0,14.0,86,0.00,,,0.00,meteohub,2013-01-03 13:25:00,
2013-01-03 08:30:00,22.8,19.2,30.11,South,180,5.0,14.0,86,0.00,,,0.00,meteohub,2013-01-03 13:30:00,
2013-01-03 08:35:00,23.0,19.4,30.12,WSW,238,3.0,13.0,86,0.00,,,0.00,meteohub,2013-01-03 13:35:00,
2013-01-03 08:40:00,23.2,19.6,30.12,South,175,6.0,13.0,86,0.00,,,0.00,meteohub,2013-01-03 13:40:00,
2013-01-03 08:45:00,23.2,19.6,30.12,SSW,211,9.0,9.0,86,0.00,,,0.00,meteohub,2013-01-03 13:45:00,
2013-01-03 08:50:00,23.2,19.6,30.11,SW,218,8.0,9.0,86,0.00,,,0.00,meteohub,2013-01-03 13:50:00,
2013-01-03 08:55:00,23.4,19.8,30.11,South,187,8.0,11.0,86,0.00,,,0.00,meteohub,2013-01-03 13:55:00,
2013-01-03 09:00:00,23.4,19.8,30.11,WSW,237,9.0,11.0,86,0.00,,,0.00,meteohub,2013-01-03 14:00:00,
2013-01-03 09:05:00,23.5,20.3,30.11,WSW,241,4.0,11.0,87,0.00,,,0.00,meteohub,2013-01-03 14:05:00,
2013-01-03 09:10:00,23.5,20.3,30.11,SSW,211,6.0,11.0,87,0.00,,,0.00,meteohub,2013-01-03 14:10:00,
2013-01-03 09:15:00,23.7,20.5,30.12,SW,222,7.0,13.0,87,0.00,,,0.00,meteohub,2013-01-03 14:15:00,
2013-01-03 09:20:00,23.7,20.5,30.12,SW,231,5.0,9.0,87,0.00,,,0.00,meteohub,2013-01-03 14:20:00,
2013-01-03 09:26:00,23.7,20.5,30.12,SW,236,6.0,11.0,87,0.00,,,0.00,meteohub,2013-01-03 14:26:00,
2013-01-03 09:31:00,23.7,20.5,30.12,WSW,239,3.0,11.0,87,0.00,,,0.00,meteohub,2013-01-03 14:31:00,
2013-01-03 09:36:00,23.9,20.7,30.12,WSW,245,3.0,11.0,87,0.00,,,0.00,meteohub,2013-01-03 14:36:00,
2013-01-03 09:41:00,24.1,21.0,30.12,SSW,211,6.0,11.0,88,0.00,,,0.00,meteohub,2013-01-03 14:41:00,
2013-01-03 09:46:00,24.1,21.0,30.12,SSW,211,8.0,9.0,88,0.00,,,0.00,meteohub,2013-01-03 14:46:00,
2013-01-03 09:51:00,24.3,21.2,30.12,SW,221,4.0,9.0,88,0.00,,,0.00,meteohub,2013-01-03 14:51:00,
2013-01-03 09:56:00,24.3,21.2,30.13,SSW,205,6.0,9.0,88,0.00,,,0.00,meteohub,2013-01-03 14:56:00,
2013-01-03 10:01:00,24.3,21.2,30.13,SW,229,8.0,10.0,88,0.00,,,0.00,meteohub,2013-01-03 15:01:00,
2013-01-03 10:06:00,24.4,21.7,30.13,SSW,203,3.0,10.0,89,0.00,,,0.00,meteohub,2013-01-03 15:06:00,
2013-01-03 10:11:00,24.4,21.7,30.13,WSW,248,3.0,10.0,89,0.00,,,0.00,meteohub,2013-01-03 15:11:00,
2013-01-03 10:16:00,24.6,21.9,30.14,SW,229,4.0,9.0,89,0.00,,,0.00,meteohub,2013-01-03 15:16:00,
2013-01-03 10:21:00,24.8,22.1,30.14,WSW,253,5.0,6.0,89,0.00,,,0.00,meteohub,2013-01-03 15:21:00,
2013-01-03 10:26:00,25.0,22.3,30.14,SW,217,2.0,7.0,89,0.00,,,0.00,meteohub,2013-01-03 15:26:00,
2013-01-03 10:31:00,25.2,22.5,30.14,SW,232,4.0,7.0,89,0.00,,,0.00,meteohub,2013-01-03 15:31:00,
2013-01-03 10:36:00,25.3,22.6,30.14,WSW,255,4.0,7.0,89,0.00,,,0.00,meteohub,2013-01-03 15:36:00,
2013-01-03 10:41:00,25.5,23.0,30.14,WSW,253,4.0,7.0,90,0.00,,,0.00,meteohub,2013-01-03 15:41:00,
2013-01-03 10:47:00,25.9,23.4,30.14,WSW,255,3.0,7.0,90,0.00,,,0.00,meteohub,2013-01-03 15:47:00,
2013-01-03 10:51:00,26.1,23.5,30.14,West,259,2.0,5.0,90,0.00,,,0.00,meteohub,2013-01-03 15:51:00,
2013-01-03 10:57:00,26.4,23.9,30.14,WSW,255,4.0,6.0,90,0.00,,,0.00,meteohub,2013-01-03 15:57:00,
2013-01-03 11:02:00,26.6,24.1,30.14,SW,235,5.0,6.0,90,0.00,,,0.00,meteohub,2013-01-03 16:02:00,
2013-01-03 11:07:00,27.0,24.4,30.14,WSW,248,3.0,6.0,90,0.00,,,0.00,meteohub,2013-01-03 16:07:00,
2013-01-03 11:12:00,27.1,24.8,30.14,SW,236,4.0,6.0,91,0.00,,,0.00,meteohub,2013-01-03 16:12:00,
2013-01-03 11:17:00,27.3,25.0,30.14,West,266,2.0,6.0,91,0.00,,,0.00,meteohub,2013-01-03 16:17:00,
2013-01-03 11:22:00,27.3,25.0,30.14,West,262,3.0,6.0,91,0.00,,,0.00,meteohub,2013-01-03 16:22:00,
2013-01-03 11:27:00,27.7,25.3,30.13,WNW,298,5.0,6.0,91,0.00,,,0.00,meteohub,2013-01-03 16:27:00,
2013-01-03 11:32:00,28.0,25.7,30.13,WNW,287,11.0,11.0,91,0.00,,,0.00,meteohub,2013-01-03 16:32:00,
2013-01-03 11:37:00,28.6,26.2,30.13,WSW,257,10.0,14.0,91,0.00,,,0.00,meteohub,2013-01-03 16:37:00,
2013-01-03 11:42:00,28.8,26.2,30.13,West,276,6.0,15.0,90,0.00,,,0.00,meteohub,2013-01-03 16:42:00,
2013-01-03 11:47:00,28.9,26.1,30.13,WNW,293,8.0,15.0,89,0.00,,,0.00,meteohub,2013-01-03 16:47:00,
2013-01-03 11:52:00,29.1,26.2,30.13,WNW,282,6.0,15.0,89,0.00,,,0.00,meteohub,2013-01-03 16:52:00,
2013-01-03 11:57:00,29.1,26.1,30.13,WNW,295,9.0,14.0,88,0.00,,,0.00,meteohub,2013-01-03 16:57:00,
2013-01-03 12:02:00,29.1,26.1,30.13,WNW,289,6.0,14.0,88,0.00,,,0.00,meteohub,2013-01-03 17:02:00,
2013-01-03 12:07:00,29.1,26.1,30.13,WNW,289,8.0,14.0,88,0.00,,,0.00,meteohub,2013-01-03 17:07:00,
2013-01-03 12:12:00,29.3,26.2,30.12,WNW,290,7.0,16.0,88,0.00,,,0.00,meteohub,2013-01-03 17:12:00,
2013-01-03 12:18:00,29.3,25.9,30.12,West,281,10.0,16.0,87,0.00,,,0.00,meteohub,2013-01-03 17:18:00,
2013-01-03 12:23:00,29.3,25.9,30.12,WNW,292,6.0,16.0,87,0.00,,,0.00,meteohub,2013-01-03 17:23:00,
2013-01-03 12:28:00,29.5,26.1,30.12,WNW,292,9.0,16.0,87,0.00,,,0.00,meteohub,2013-01-03 17:28:00,
2013-01-03 12:33:00,29.5,26.1,30.12,WNW,287,8.0,13.0,87,0.00,,,0.00,meteohub,2013-01-03 17:33:00,
2013-01-03 12:38:00,29.5,26.1,30.12,West,273,11.0,13.0,87,0.00,,,0.00,meteohub,2013-01-03 17:38:00,
2013-01-03 12:43:00,29.5,26.1,30.12,WNW,295,8.0,14.0,87,0.00,,,0.00,meteohub,2013-01-03 17:43:00,
2013-01-03 12:48:00,29.7,26.2,30.12,WNW,293,8.0,14.0,87,0.00,,,0.00,meteohub,2013-01-03 17:48:00,
2013-01-03 12:53:00,29.7,26.2,30.12,NW,311,12.0,18.0,87,0.00,,,0.00,meteohub,2013-01-03 17:53:00,
2013-01-03 12:58:00,29.7,26.2,30.12,WNW,293,13.0,18.0,87,0.00,,,0.00,meteohub,2013-01-03 17:58:00,
2013-01-03 13:03:00,29.5,26.1,30.12,WNW,292,12.0,18.0,87,0.00,,,0.00,meteohub,2013-01-03 18:03:00,
2013-01-03 13:08:00,29.5,26.1,30.12,West,280,6.0,17.0,87,0.00,,,0.00,meteohub,2013-01-03 18:08:00,
2013-01-03 13:13:00,29.5,26.1,30.12,WNW,286,8.0,17.0,87,0.00,,,0.00,meteohub,2013-01-03 18:13:00,
2013-01-03 13:18:00,29.5,26.4,30.12,West,278,8.0,17.0,88,0.00,,,0.00,meteohub,2013-01-03 18:18:00,
2013-01-03 13:23:00,29.5,26.4,30.12,NW,316,13.0,15.0,88,0.00,,,0.00,meteohub,2013-01-03 18:23:00,
2013-01-03 13:28:00,29.3,25.9,30.12,WNW,295,12.0,15.0,87,0.00,,,0.00,meteohub,2013-01-03 18:28:00,
2013-01-03 13:33:00,29.3,25.9,30.12,WNW,295,11.0,16.0,87,0.00,,,0.00,meteohub,2013-01-03 18:33:00,
2013-01-03 13:38:00,29.1,26.1,30.12,WNW,283,6.0,18.0,88,0.00,,,0.00,meteohub,2013-01-03 18:38:00,
2013-01-03 13:43:00,29.1,26.1,30.12,WNW,293,6.0,18.0,88,0.00,,,0.00,meteohub,2013-01-03 18:43:00,
2013-01-03 13:49:00,29.1,26.1,30.12,WNW,295,7.0,18.0,88,0.00,,,0.00,meteohub,2013-01-03 18:49:00,
2013-01-03 13:54:00,29.1,26.1,30.12,WNW,292,10.0,13.0,88,0.00,,,0.00,meteohub,2013-01-03 18:54:00,
2013-01-03 13:59:00,28.9,25.5,30.12,WNW,298,13.0,14.0,87,0.00,,,0.00,meteohub,2013-01-03 18:59:00,
2013-01-03 14:04:00,28.9,25.9,30.12,West,279,7.0,17.0,88,0.00,,,0.00,meteohub,2013-01-03 19:04:00,
2013-01-03 14:09:00,28.9,25.9,30.12,WNW,295,11.0,17.0,88,0.00,,,0.00,meteohub,2013-01-03 19:09:00,
2013-01-03 14:14:00,29.1,26.1,30.12,West,281,5.0,17.0,88,0.00,,,0.00,meteohub,2013-01-03 19:14:00,
2013-01-03 14:19:00,29.1,26.1,30.12,WNW,301,9.0,14.0,88,0.00,,,0.00,meteohub,2013-01-03 19:19:00,
2013-01-03 14:55:00,28.9,25.5,30.13,WNW,287,11.0,18.0,87,0.00,,,0.00,meteohub,2013-01-03 19:55:00,
2013-01-03 15:00:00,28.9,25.5,30.13,West,273,8.0,18.0,87,0.00,,,0.00,meteohub,2013-01-03 20:00:00,
2013-01-03 15:05:00,28.9,25.5,30.13,WNW,283,10.0,19.0,87,0.00,,,0.00,meteohub,2013-01-03 20:05:00,
2013-01-03 15:10:00,28.9,25.5,30.14,West,269,7.0,19.0,87,0.00,,,0.00,meteohub,2013-01-03 20:10:00,
2013-01-03 15:15:00,28.9,25.3,30.14,West,280,11.0,18.0,86,0.00,,,0.00,meteohub,2013-01-03 20:15:00,
2013-01-03 15:21:00,28.9,25.5,30.14,West,281,9.0,16.0,87,0.00,,,0.00,meteohub,2013-01-03 20:21:00,
2013-01-03 15:26:00,28.9,25.5,30.14,West,276,8.0,16.0,87,0.00,,,0.00,meteohub,2013-01-03 20:26:00,
2013-01-03 15:31:00,28.8,25.3,30.14,WNW,293,11.0,16.0,87,0.00,,,0.00,meteohub,2013-01-03 20:31:00,
2013-01-03 15:36:00,28.9,25.5,30.14,West,266,6.0,14.0,87,0.00,,,0.00,meteohub,2013-01-03 20:36:00,
2013-01-03 15:41:00,28.8,25.3,30.14,West,274,10.0,12.0,87,0.00,,,0.00,meteohub,2013-01-03 20:41:00,
2013-01-03 15:46:00,28.8,25.3,30.15,West,274,11.0,15.0,87,0.00,,,0.00,meteohub,2013-01-03 20:46:00,
2013-01-03 15:51:00,28.8,25.2,30.15,WNW,293,18.0,18.0,86,0.00,,,0.00,meteohub,2013-01-03 20:51:00,
2013-01-03 15:56:00,28.8,25.3,30.15,West,269,10.0,18.0,87,0.00,,,0.00,meteohub,2013-01-03 20:56:00,
2013-01-03 16:01:00,28.8,25.3,30.15,WNW,287,9.0,18.0,87,0.00,,,0.00,meteohub,2013-01-03 21:01:00,
2013-01-03 16:06:00,28.8,25.3,30.16,WNW,286,10.0,18.0,87,0.00,,,0.00,meteohub,2013-01-03 21:06:00,
2013-01-03 16:11:00,28.8,25.2,30.15,West,278,13.0,15.0,86,0.00,,,0.00,meteohub,2013-01-03 21:11:00,
2013-01-03 16:16:00,28.8,25.2,30.16,West,280,14.0,20.0,86,0.00,,,0.00,meteohub,2013-01-03 21:16:00,
2013-01-03 16:21:00,28.8,25.3,30.16,WNW,285,6.0,20.0,87,0.00,,,0.00,meteohub,2013-01-03 21:21:00,
2013-01-03 16:26:00,28.6,25.2,30.16,West,277,6.0,16.0,87,0.00,,,0.00,meteohub,2013-01-03 21:26:00,
2013-01-03 16:31:00,28.8,25.2,30.17,WNW,289,13.0,14.0,86,0.00,,,0.00,meteohub,2013-01-03 21:31:00,
2013-01-03 16:36:00,28.8,25.2,30.17,WNW,284,5.0,13.0,86,0.00,,,0.00,meteohub,2013-01-03 21:36:00,
2013-01-03 16:41:00,28.8,25.2,30.17,WNW,293,7.0,13.0,86,0.00,,,0.00,meteohub,2013-01-03 21:41:00,
2013-01-03 16:46:00,28.8,25.3,30.17,West,266,9.0,13.0,87,0.00,,,0.00,meteohub,2013-01-03 21:46:00,
2013-01-03 16:52:00,28.8,25.2,30.17,WNW,286,5.0,13.0,86,0.00,,,0.00,meteohub,2013-01-03 21:52:00,
2013-01-03 16:57:00,28.8,25.2,30.17,West,269,7.0,11.0,86,0.00,,,0.00,meteohub,2013-01-03 21:57:00,
2013-01-03 17:02:00,28.8,25.2,30.18,WNW,289,11.0,13.0,86,0.00,,,0.00,meteohub,2013-01-03 22:02:00,
2013-01-03 17:07:00,28.8,25.2,30.18,West,271,8.0,13.0,86,0.00,,,0.00,meteohub,2013-01-03 22:07:00,
2013-01-03 17:12:00,28.8,25.2,30.18,WNW,287,8.0,13.0,86,0.00,,,0.00,meteohub,2013-01-03 22:12:00,
2013-01-03 17:17:00,28.8,25.2,30.19,West,271,6.0,13.0,86,0.00,,,0.00,meteohub,2013-01-03 22:17:00,
2013-01-03 17:22:00,28.9,25.3,30.19,WNW,295,11.0,13.0,86,0.00,,,0.00,meteohub,2013-01-03 22:22:00,
2013-01-03 17:27:00,28.9,25.3,30.19,WNW,297,6.0,13.0,86,0.00,,,0.00,meteohub,2013-01-03 22:27:00,
2013-01-03 17:32:00,28.9,25.0,30.19,West,263,5.0,12.0,85,0.00,,,0.00,meteohub,2013-01-03 22:32:00,
2013-01-03 17:37:00,28.9,25.0,30.19,West,273,7.0,12.0,85,0.00,,,0.00,meteohub,2013-01-03 22:37:00,
2013-01-03 17:42:00,28.9,25.0,30.19,WNW,288,6.0,11.0,85,0.00,,,0.00,meteohub,2013-01-03 22:42:00,
2013-01-03 17:47:00,28.9,25.0,30.19,WNW,293,6.0,11.0,85,0.00,,,0.00,meteohub,2013-01-03 22:47:00,
2013-01-03 17:52:00,28.9,25.0,30.19,WNW,292,9.0,10.0,85,0.00,,,0.00,meteohub,2013-01-03 22:52:00,
2013-01-03 17:57:00,28.9,25.0,30.20,WNW,287,9.0,12.0,85,0.00,,,0.00,meteohub,2013-01-03 22:57:00,
2013-01-03 18:02:00,28.9,24.8,30.20,WNW,290,9.0,12.0,84,0.00,,,0.00,meteohub,2013-01-03 23:02:00,
2013-01-03 18:07:00,28.9,24.8,30.20,WNW,297,9.0,13.0,84,0.00,,,0.00,meteohub,2013-01-03 23:07:00,
2013-01-03 18:12:00,28.9,24.8,30.20,West,281,8.0,13.0,84,0.00,,,0.00,meteohub,2013-01-03 23:12:00,
2013-01-03 18:17:00,29.1,25.0,30.20,WNW,293,12.0,15.0,84,0.00,,,0.00,meteohub,2013-01-03 23:17:00,
2013-01-03 18:22:00,29.1,25.0,30.20,WNW,300,9.0,15.0,84,0.00,,,0.00,meteohub,2013-01-03 23:22:00,
2013-01-03 18:27:00,29.1,25.0,30.20,WNW,295,10.0,15.0,84,0.00,,,0.00,meteohub,2013-01-03 23:27:00,
2013-01-03 18:32:00,29.3,25.2,30.21,West,278,8.0,15.0,84,0.00,,,0.00,meteohub,2013-01-03 23:32:00,
2013-01-03 18:37:00,29.1,25.0,30.21,WNW,284,5.0,14.0,84,0.00,,,0.00,meteohub,2013-01-03 23:37:00,
2013-01-03 18:42:00,29.1,25.0,30.21,West,276,5.0,14.0,84,0.00,,,0.00,meteohub,2013-01-03 23:42:00,
2013-01-03 18:47:00,29.1,25.0,30.21,West,277,5.0,14.0,84,0.00,,,0.00,meteohub,2013-01-03 23:47:00,
2013-01-03 18:52:00,29.1,25.0,30.21,West,271,6.0,11.0,84,0.00,,,0.00,meteohub,2013-01-03 23:52:00,
2013-01-03 18:57:00,29.1,25.0,30.21,West,278,5.0,11.0,84,0.00,,,0.00,meteohub,2013-01-03 23:57:00,
2013-01-03 19:02:00,29.1,25.0,30.21,WNW,293,5.0,11.0,84,0.00,,,0.00,meteohub,2013-01-04 00:02:00,
2013-01-03 19:07:00,29.1,25.0,30.21,West,274,5.0,9.0,84,0.00,,,0.00,meteohub,2013-01-04 00:07:00,
2013-01-03 19:12:00,29.1,25.2,30.22,West,269,5.0,9.0,85,0.00,,,0.00,meteohub,2013-01-04 00:12:00,
2013-01-03 19:18:00,29.1,25.0,30.22,West,278,4.0,9.0,84,0.00,,,0.00,meteohub,2013-01-04 00:18:00,
2013-01-03 19:23:00,29.1,25.2,30.21,West,269,3.0,9.0,85,0.00,,,0.00,meteohub,2013-01-04 00:23:00,
2013-01-03 19:28:00,29.1,25.2,30.22,WSW,248,4.0,7.0,85,0.00,,,0.00,meteohub,2013-01-04 00:28:00,
2013-01-03 19:33:00,29.1,25.2,30.22,West,266,2.0,6.0,85,0.00,,,0.00,meteohub,2013-01-04 00:33:00,
2013-01-03 19:38:00,29.1,25.2,30.22,West,259,5.0,5.0,85,0.00,,,0.00,meteohub,2013-01-04 00:38:00,
2013-01-03 19:43:00,29.1,25.2,30.22,West,271,5.0,6.0,85,0.00,,,0.00,meteohub,2013-01-04 00:43:00,
2013-01-03 19:48:00,29.1,25.2,30.22,West,263,2.0,6.0,85,0.00,,,0.00,meteohub,2013-01-04 00:48:00,
2013-01-03 19:53:00,29.1,25.2,30.22,West,262,3.0,6.0,85,0.00,,,0.00,meteohub,2013-01-04 00:53:00,
2013-01-03 19:58:00,29.1,25.5,30.22,West,274,3.0,6.0,86,0.00,,,0.00,meteohub,2013-01-04 00:58:00,
2013-01-03 20:03:00,29.3,25.3,30.22,WSW,256,4.0,6.0,85,0.00,,,0.00,meteohub,2013-01-04 01:03:00,
2013-01-03 20:08:00,29.5,25.5,30.22,West,278,5.0,8.0,85,0.00,,,0.00,meteohub,2013-01-04 01:08:00,
2013-01-03 20:13:00,29.5,25.5,30.22,West,271,4.0,8.0,85,0.00,,,0.00,meteohub,2013-01-04 01:13:00,
2013-01-03 20:18:00,29.7,25.7,30.22,WNW,287,6.0,10.0,85,0.00,,,0.00,meteohub,2013-01-04 01:18:00,
2013-01-03 20:23:00,29.7,25.7,30.22,West,281,6.0,10.0,85,0.00,,,0.00,meteohub,2013-01-04 01:23:00,
2013-01-03 20:28:00,29.7,25.7,30.22,West,266,4.0,10.0,85,0.00,,,0.00,meteohub,2013-01-04 01:28:00,
2013-01-03 20:34:00,29.7,25.7,30.21,West,264,4.0,8.0,85,0.00,,,0.00,meteohub,2013-01-04 01:34:00,
2013-01-03 20:39:00,29.7,25.7,30.21,WSW,256,3.0,8.0,85,0.00,,,0.00,meteohub,2013-01-04 01:39:00,
2013-01-03 20:44:00,29.7,25.7,30.21,West,270,4.0,8.0,85,0.00,,,0.00,meteohub,2013-01-04 01:44:00,
2013-01-03 20:49:00,29.7,25.7,30.21,West,262,3.0,8.0,85,0.00,,,0.00,meteohub,2013-01-04 01:49:00,
2013-01-03 20:54:00,29.7,25.7,30.22,West,266,3.0,8.0,85,0.00,,,0.00,meteohub,2013-01-04 01:54:00,
2013-01-03 20:59:00,29.7,25.3,30.21,West,278,6.0,8.0,84,0.00,,,0.00,meteohub,2013-01-04 01:59:00,
2013-01-03 21:04:00,29.8,25.5,30.21,West,273,5.0,8.0,84,0.00,,,0.00,meteohub,2013-01-04 02:04:00,
2013-01-03 21:09:00,29.8,25.5,30.22,WNW,287,5.0,10.0,84,0.00,,,0.00,meteohub,2013-01-04 02:09:00,
2013-01-03 21:14:00,29.8,25.5,30.21,West,269,9.0,10.0,84,0.00,,,0.00,meteohub,2013-01-04 02:14:00,
2013-01-03 21:19:00,29.8,25.5,30.22,West,276,5.0,10.0,84,0.00,,,0.00,meteohub,2013-01-04 02:19:00,
2013-01-03 21:24:00,30.0,25.7,30.22,WNW,290,7.0,10.0,84,0.00,,,0.00,meteohub,2013-01-04 02:24:00,
2013-01-03 21:29:00,30.0,25.7,30.22,West,276,6.0,12.0,84,0.00,,,0.00,meteohub,2013-01-04 02:29:00,
2013-01-03 21:34:00,30.0,25.7,30.22,WNW,295,7.0,13.0,84,0.00,,,0.00,meteohub,2013-01-04 02:34:00,
2013-01-03 21:39:00,30.0,25.7,30.22,WNW,293,9.0,13.0,84,0.00,,,0.00,meteohub,2013-01-04 02:39:00,
2013-01-03 21:44:00,29.8,25.5,30.21,WNW,287,4.0,13.0,84,0.00,,,0.00,meteohub,2013-01-04 02:44:00,
2013-01-03 21:49:00,29.8,25.3,30.21,WNW,289,9.0,12.0,83,0.00,,,0.00,meteohub,2013-01-04 02:49:00,
2013-01-03 21:54:00,29.8,25.0,30.21,WNW,298,10.0,11.0,82,0.00,,,0.00,meteohub,2013-01-04 02:54:00,
2013-01-03 21:59:00,29.7,24.8,30.22,NW,304,8.0,17.0,82,0.00,,,0.00,meteohub,2013-01-04 02:59:00,
2013-01-03 22:04:00,29.7,24.8,30.21,West,280,6.0,17.0,82,0.00,,,0.00,meteohub,2013-01-04 03:04:00,
2013-01-03 22:09:00,29.7,24.8,30.21,WNW,287,6.0,17.0,82,0.00,,,0.00,meteohub,2013-01-04 03:09:00,
2013-01-03 22:15:00,29.7,24.8,30.21,West,259,10.0,13.0,82,0.00,,,0.00,meteohub,2013-01-04 03:15:00,
2013-01-03 22:20:00,29.7,24.8,30.21,WNW,300,10.0,13.0,82,0.00,,,0.00,meteohub,2013-01-04 03:20:00,
2013-01-03 22:25:00,29.5,24.6,30.21,WNW,290,9.0,13.0,82,0.00,,,0.00,meteohub,2013-01-04 03:25:00,
2013-01-03 22:30:00,29.5,25.0,30.21,West,274,5.0,13.0,83,0.00,,,0.00,meteohub,2013-01-04 03:30:00,
2013-01-03 22:35:00,29.5,25.0,30.21,West,276,6.0,13.0,83,0.00,,,0.00,meteohub,2013-01-04 03:35:00,
2013-01-03 22:40:00,29.3,24.8,30.20,West,274,4.0,12.0,83,0.00,,,0.00,meteohub,2013-01-04 03:40:00,
2013-01-03 22:45:00,29.3,25.2,30.20,West,278,7.0,12.0,84,0.00,,,0.00,meteohub,2013-01-04 03:45:00,
2013-01-03 22:50:00,29.3,25.2,30.20,West,281,5.0,10.0,84,0.00,,,0.00,meteohub,2013-01-04 03:50:00,
2013-01-03 22:55:00,29.3,25.2,30.20,West,269,6.0,10.0,84,0.00,,,0.00,meteohub,2013-01-04 03:55:00,
2013-01-03 23:00:00,29.5,25.0,30.20,West,281,7.0,10.0,83,0.00,,,0.00,meteohub,2013-01-04 04:00:00,
2013-01-03 23:05:00,29.5,25.0,30.20,West,275,13.0,14.0,83,0.00,,,0.00,meteohub,2013-01-04 04:05:00,
2013-01-03 23:10:00,29.7,24.8,30.20,West,259,10.0,14.0,82,0.00,,,0.00,meteohub,2013-01-04 04:10:00,
2013-01-03 23:15:00,29.7,24.8,30.20,West,281,8.0,15.0,82,0.00,,,0.00,meteohub,2013-01-04 04:15:00,
2013-01-03 23:20:00,29.7,24.8,30.20,WNW,284,6.0,15.0,82,0.00,,,0.00,meteohub,2013-01-04 04:20:00,
2013-01-03 23:25:00,29.7,25.2,30.20,West,277,6.0,15.0,83,0.00,,,0.00,meteohub,2013-01-04 04:25:00,
2013-01-03 23:30:00,29.7,25.2,30.20,West,281,6.0,14.0,83,0.00,,,0.00,meteohub,2013-01-04 04:30:00,
2013-01-03 23:35:00,29.7,25.2,30.20,West,264,10.0,13.0,83,0.00,,,0.00,meteohub,2013-01-04 04:35:00,
2013-01-03 23:40:00,29.7,25.2,30.20,West,277,5.0,13.0,83,0.00,,,0.00,meteohub,2013-01-04 04:40:00,
2013-01-03 23:45:00,29.7,25.2,30.20,West,264,7.0,13.0,83,0.00,,,0.00,meteohub,2013-01-04 04:45:00,
2013-01-03 23:50:00,29.7,25.2,30.20,WSW,256,10.0,13.0,83,0.00,,,0.00,meteohub,2013-01-04 04:50:00,
2013-01-03 23:55:00,29.7,25.3,30.20,West,277,9.0,16.0,84,0.00,,,0.00,meteohub,2013-01-04 04:55:00,